Home > Weather > Portland > Past weeks

Flag for U.S.A. Weather for the Past 2 Weeks in Portland, Oregon, U.S.A.

Now
51 °F

Overcast.


Feels Like: 51 °F
Forecast: 41 / 52 °F
Wind: No wind

Location: Portland International Airport

Current Time: Feb 6, 2016 at 2:01:27 PM

Latest Report: Feb 6, 2016 at 12:53 PM


Visibility: 10 mi

Pressure: 30.47 "Hg

Humidity: 71%

Dew point: 42 °F

Location of PortlandLocation

Historic Weather in Portland — Graph

°F

Portland Temperature Yesterday

Maximum temperature yesterday: 55 °F (at 5:53 PM)
Minimum temperature yesterday: 42 °F (at 6:53 AM)
Average temperature yesterday: 48 °F

High & Low Weather Summary for the Past Weeks

 TemperatureHumidityPressure
High59 °F (Jan 28, 2:53 PM)100% (Jan 26, 12:53 PM)30.50 "Hg (Jan 26, 12:53 PM)
Low34 °F (Feb 2, 5:53 AM)54% (Jan 28, 3:53 PM)29.62 "Hg (Jan 29, 7:53 AM)
Average46 °F81%30.13 "Hg
* Reported Jan 22 12:53 PM — Feb 6 12:53 PM, Portland, Weather by CustomWeather, © 2016

Note: Actual official high and low records may vary slightly from our data, if they occured in-between our weather recording intervals... More about our weather records

Advertising

Portland Weather History for the Previous 24 Hours

 ConditionsComfort  
Time TempWeatherWind HumidityBarometerVisibility
12:53 PM
Sat, Feb 6
51 °FOvercast.No wind71%30.47 "Hg10 mi
11:53 AM49 °FOvercast.3 mph80%30.49 "Hg10 mi
10:53 AM48 °FOvercast.5 mph86%30.50 "Hg10 mi
9:53 AM46 °FOvercast.No wind89%30.49 "Hg10 mi
8:53 AM43 °FOvercast.No wind93%30.48 "Hg10 mi
7:53 AM42 °FOvercast.No wind92%30.48 "Hg10 mi
6:53 AM45 °FOvercast.No wind90%30.47 "Hg10 mi
5:53 AM44 °FPassing clouds.No wind85%30.46 "Hg10 mi
4:53 AM46 °FPassing clouds.No wind83%30.45 "Hg10 mi
3:53 AM46 °FPassing clouds.7 mph83%30.43 "Hg10 mi
2:53 AM47 °FPartly cloudy.10 mph83%30.41 "Hg10 mi
1:53 AM47 °FPassing clouds.14 mph86%30.38 "Hg10 mi
12:53 AM47 °FPassing clouds.12 mph83%30.38 "Hg10 mi
11:53 PM
Fri, Feb 5
47 °FPassing clouds.9 mph83%30.37 "Hg10 mi
10:53 PM47 °FPassing clouds.9 mph86%30.34 "Hg10 mi
9:53 PM48 °FPartly cloudy.7 mph86%30.31 "Hg10 mi
8:53 PM49 °FOvercast.7 mph86%30.30 "Hg10 mi
7:53 PM51 °FLight rain. Mostly cloudy.10 mph77%30.27 "Hg10 mi
6:53 PM51 °FRain. Overcast.13 mph86%30.24 "Hg7 mi
5:53 PM55 °FLight rain. Mostly cloudy.18 mph62%30.18 "Hg10 mi
4:53 PM51 °FLight rain. More clouds than sun.8 mph69%30.15 "Hg10 mi
3:53 PM51 °FBroken clouds.15 mph66%30.15 "Hg10 mi
2:53 PM51 °FPartly sunny.10 mph69%30.16 "Hg10 mi
Weather by CustomWeather, © 2016

See weather overviewHow to use our weather pages